| time (UTC) | temp C | wind direction | speed KPH | gust KPH | rain 1hr cm | rain 24hr cm | rain mn cm | humidity % | barometer mb |
| 20260504151010 | 21 | 214 | 6.4 | 8.0 | 0.00 | 0.00 | 0.00 | 55 | 1016.4 |
| 20260504150508 | 21 | 179 | 4.8 | 4.8 | 0.00 | 0.00 | 0.00 | 58 | 1016.5 |
| 20260504140933 | 17 | 141 | 3.2 | 3.2 | 0.00 | 0.00 | 0.00 | 76 | 1016.4 |
| 20260504140430 | 17 | 169 | 4.8 | 4.8 | 0.00 | 0.00 | 0.00 | 79 | 1016.3 |
| 20260504130354 | 11 | 99 | 0.0 | 0.0 | 0.00 | 0.00 | 0.00 | 98 | 1016.5 |
| 20260504120317 | 7 | 99 | 0.0 | 0.0 | 0.00 | 0.00 | 0.00 | 98 | 1016.4 |
| 20260504110242 | 6 | 99 | 0.0 | 0.0 | 0.00 | 0.00 | 0.00 | 98 | 1015.7 |
| 20260504100205 | 6 | 99 | 0.0 | 0.0 | 0.00 | 0.00 | 0.00 | 98 | 1015.7 |
| 20260504090133 | 7 | 99 | 0.0 | 0.0 | 0.00 | 0.00 | 0.00 | 98 | 1015.7 |
| 20260504081604 | 7 | 99 | 0.0 | 0.0 | 0.00 | 0.00 | 0.00 | 97 | 1015.7 |
| 20260504081059 | 7 | 99 | 0.0 | 0.0 | 0.00 | 0.00 | 0.00 | 97 | 1016.1 |
| 20260504080556 | 7 | 99 | 0.0 | 0.0 | 0.00 | 0.00 | 0.00 | 97 | 1015.8 |
| 20260504050409 | 9 | 99 | 0.0 | 0.0 | 0.00 | 0.00 | 0.00 | 96 | 1017.3 |
| 20260504045906 | 9 | 99 | 0.0 | 0.0 | 0.00 | 0.00 | 0.00 | 96 | 1017.4 |
| 20260504045401 | 9 | 99 | 0.0 | 0.0 | 0.00 | 0.00 | 0.00 | 96 | 1017.1 |
| 20260504044858 | 9 | 99 | 0.0 | 0.0 | 0.00 | 0.00 | 0.00 | 96 | 1017.3 |
| 20260504044356 | 9 | 99 | 0.0 | 0.0 | 0.00 | 0.00 | 0.00 | 96 | 1017.4 |
| 20260504043853 | 9 | 99 | 0.0 | 0.0 | 0.00 | 0.00 | 0.00 | 96 | 1017.5 |
| 20260504043350 | 9 | 99 | 0.0 | 0.0 | 0.00 | 0.00 | 0.00 | 96 | 1017.5 |
| 20260504042847 | 9 | 99 | 0.0 | 0.0 | 0.00 | 0.00 | 0.00 | 96 | 1017.3 |
| 20260504042343 | 9 | 99 | 0.0 | 0.0 | 0.00 | 0.00 | 0.00 | 96 | 1017.3 |
| 20260504041840 | 9 | 99 | 0.0 | 0.0 | 0.00 | 0.00 | 0.00 | 96 | 1017.5 |
| 20260504041336 | 10 | 99 | 0.0 | 0.0 | 0.00 | 0.00 | 0.00 | 96 | 1017.3 |
| 20260504040832 | 10 | 99 | 0.0 | 0.0 | 0.00 | 0.00 | 0.00 | 96 | 1017.7 |
| 20260504040330 | 10 | 99 | 0.0 | 0.0 | 0.00 | 0.00 | 0.00 | 96 | 1017.6 |
| 20260504035826 | 10 | 99 | 0.0 | 0.0 | 0.00 | 0.00 | 0.00 | 96 | 1017.3 |
| 20260504035324 | 10 | 99 | 0.0 | 0.0 | 0.00 | 0.00 | 0.00 | 96 | 1017.3 |
| 20260504034820 | 10 | 99 | 0.0 | 0.0 | 0.00 | 0.00 | 0.00 | 96 | 1017.6 |
| 20260504034318 | 10 | 99 | 0.0 | 0.0 | 0.00 | 0.00 | 0.00 | 96 | 1017.4 |
| 20260504033815 | 10 | 99 | 0.0 | 0.0 | 0.00 | 0.00 | 0.00 | 95 | 1017.4 |
| 20260504033313 | 10 | 99 | 0.0 | 0.0 | 0.00 | 0.00 | 0.00 | 95 | 1017.4 |
| 20260504032809 | 10 | 99 | 0.0 | 0.0 | 0.00 | 0.00 | 0.00 | 95 | 1017.4 |
| 20260504032306 | 10 | 99 | 0.0 | 0.0 | 0.00 | 0.00 | 0.00 | 95 | 1017.6 |
| 20260504031803 | 10 | 99 | 0.0 | 0.0 | 0.00 | 0.00 | 0.00 | 95 | 1017.5 |
| 20260504031300 | 10 | 99 | 0.0 | 0.0 | 0.00 | 0.00 | 0.00 | 95 | 1017.5 |
| 20260504030756 | 10 | 99 | 0.0 | 0.0 | 0.00 | 0.00 | 0.00 | 95 | 1017.5 |
| 20260504030254 | 10 | 99 | 0.0 | 0.0 | 0.00 | 0.00 | 0.00 | 95 | 1017.4 |
| 20260504025750 | 10 | 99 | 0.0 | 0.0 | 0.00 | 0.00 | 0.00 | 95 | 1017.3 |
| 20260504025247 | 10 | 99 | 0.0 | 0.0 | 0.00 | 0.00 | 0.00 | 95 | 1017.2 |
| 20260504024744 | 10 | 99 | 0.0 | 0.0 | 0.00 | 0.00 | 0.00 | 94 | 1017.4 |
| 20260504024240 | 11 | 99 | 0.0 | 0.0 | 0.00 | 0.00 | 0.00 | 94 | 1017.4 |
| 20260504023737 | 11 | 99 | 0.0 | 0.0 | 0.00 | 0.00 | 0.00 | 94 | 1017.3 |
| 20260504023233 | 11 | 99 | 0.0 | 0.0 | 0.00 | 0.00 | 0.00 | 93 | 1017.3 |
| 20260504022729 | 11 | 107 | 0.0 | 0.0 | 0.00 | 0.00 | 0.00 | 93 | 1017.1 |
| 20260504022226 | 11 | 206 | 0.0 | 0.0 | 0.00 | 0.00 | 0.00 | 93 | 1017.5 |
| 20260504021723 | 11 | 206 | 0.0 | 0.0 | 0.00 | 0.00 | 0.00 | 93 | 1017.3 |
| 20260504021220 | 11 | 206 | 0.0 | 0.0 | 0.00 | 0.00 | 0.00 | 92 | 1017.1 |
| 20260504020717 | 11 | 206 | 0.0 | 0.0 | 0.00 | 0.00 | 0.00 | 92 | 1016.8 |
| 20260504020214 | 11 | 206 | 0.0 | 0.0 | 0.00 | 0.00 | 0.00 | 92 | 1016.8 |
| 20260504015710 | 12 | 206 | 0.0 | 0.0 | 0.00 | 0.00 | 0.00 | 91 | 1016.7 |
| 20260504015206 | 12 | 206 | 0.0 | 0.0 | 0.00 | 0.00 | 0.00 | 91 | 1017.0 |
| 20260504014702 | 12 | 206 | 0.0 | 0.0 | 0.00 | 0.00 | 0.00 | 90 | 1016.6 |
| 20260504014159 | 12 | 206 | 0.0 | 0.0 | 0.00 | 0.00 | 0.00 | 90 | 1016.8 |
| 20260504013657 | 12 | 206 | 0.0 | 0.0 | 0.00 | 0.00 | 0.00 | 90 | 1016.9 |
| 20260504013154 | 12 | 206 | 0.0 | 0.0 | 0.00 | 0.00 | 0.00 | 89 | 1016.6 |
| 20260504012650 | 12 | 206 | 0.0 | 0.0 | 0.00 | 0.00 | 0.00 | 89 | 1016.6 |
| 20260504012149 | 13 | 206 | 0.0 | 0.0 | 0.00 | 0.00 | 0.00 | 88 | 1016.5 |
| 20260504011645 | 13 | 206 | 0.0 | 0.0 | 0.00 | 0.00 | 0.00 | 88 | 1016.5 |
| 20260504011142 | 13 | 206 | 0.0 | 0.0 | 0.00 | 0.00 | 0.00 | 88 | 1016.6 |
| 20260504010637 | 13 | 206 | 0.0 | 0.0 | 0.00 | 0.00 | 0.00 | 87 | 1016.3 |
| 20260504010134 | 14 | 206 | 0.0 | 0.0 | 0.00 | 0.00 | 0.00 | 85 | 1016.5 |
| 20260504005631 | 14 | 206 | 0.0 | 0.0 | 0.00 | 0.00 | 0.00 | 86 | 1016.3 |
| 20260504005127 | 15 | 206 | 0.0 | 0.0 | 0.00 | 0.00 | 0.00 | 85 | 1016.3 |
| 20260504004626 | 15 | 206 | 0.0 | 0.0 | 0.00 | 0.00 | 0.00 | 85 | 1016.2 |
| 20260504004123 | 15 | 206 | 0.0 | 0.0 | 0.00 | 0.00 | 0.00 | 84 | 1015.9 |
| 20260504003619 | 16 | 206 | 0.0 | 0.0 | 0.00 | 0.00 | 0.00 | 84 | 1016.1 |
| 20260504003115 | 16 | 206 | 0.0 | 0.0 | 0.00 | 0.00 | 0.00 | 83 | 1016.1 |
| 20260504002612 | 16 | 206 | 0.0 | 0.0 | 0.00 | 0.00 | 0.00 | 82 | 1015.8 |
| 20260504002110 | 17 | 206 | 0.0 | 0.0 | 0.00 | 0.00 | 0.00 | 80 | 1015.8 |
| 20260504001608 | 17 | 206 | 0.0 | 0.0 | 0.00 | 0.00 | 0.00 | 78 | 1015.7 |
| 20260504001103 | 17 | 206 | 0.0 | 0.0 | 0.00 | 0.00 | 0.00 | 75 | 1015.7 |
| 20260504000600 | 18 | 206 | 0.0 | 0.0 | 0.00 | 0.00 | 0.00 | 71 | 1016.1 |
| 20260504000058 | 18 | 206 | 0.0 | 0.0 | 0.00 | 0.00 | 0.00 | 64 | 1016.1 |
| 20260503235556 | 19 | 206 | 0.0 | 0.0 | 0.00 | 0.00 | 0.00 | 64 | 1016.1 |
| 20260503235053 | 20 | 206 | 0.0 | 0.0 | 0.00 | 0.00 | 0.00 | 62 | 1015.9 |
| 20260503234550 | 21 | 206 | 0.0 | 0.0 | 0.00 | 0.00 | 0.00 | 63 | 1016.3 |
| 20260503234048 | 21 | 206 | 0.0 | 0.0 | 0.00 | 0.00 | 0.00 | 51 | 1016.3 |
| 20260503233544 | 21 | 189 | 8.0 | 11.3 | 0.00 | 0.00 | 0.00 | 44 | 1016.2 |
| 20260503233041 | 21 | 161 | 3.2 | 4.8 | 0.00 | 0.00 | 0.00 | 47 | 1016.3 |
| 20260503232538 | 21 | 170 | 1.6 | 3.2 | 0.00 | 0.00 | 0.00 | 53 | 1016.4 |
| 20260503232035 | 22 | 172 | 0.0 | 0.0 | 0.00 | 0.00 | 0.00 | 47 | 1016.5 |
| 20260503231533 | 22 | 178 | 3.2 | 4.8 | 0.00 | 0.00 | 0.00 | 44 | 1016.2 |
| 20260503231029 | 22 | 230 | 9.7 | 14.5 | 0.00 | 0.00 | 0.00 | 43 | 1016.2 |
| 20260503230526 | 22 | 189 | 4.8 | 4.8 | 0.00 | 0.00 | 0.00 | 43 | 1016.4 |
| 20260503230024 | 22 | 212 | 0.0 | 3.2 | 0.00 | 0.00 | 0.00 | 44 | 1016.5 |
| 20260503225520 | 22 | 167 | 4.8 | 8.0 | 0.00 | 0.00 | 0.00 | 44 | 1016.4 |
| 20260503225015 | 22 | 91 | 1.6 | 3.2 | 0.00 | 0.00 | 0.00 | 41 | 1016.3 |
| 20260503224514 | 22 | 213 | 3.2 | 3.2 | 0.00 | 0.00 | 0.00 | 45 | 1016.2 |
| 20260503224011 | 22 | 158 | 6.4 | 8.0 | 0.00 | 0.00 | 0.00 | 42 | 1016.4 |
| 20260503223509 | 22 | 209 | 4.8 | 8.0 | 0.00 | 0.00 | 0.00 | 43 | 1016.4 |
| 20260503223004 | 22 | 189 | 6.4 | 8.0 | 0.00 | 0.00 | 0.00 | 42 | 1016.3 |
| 20260503222502 | 23 | 211 | 8.0 | 8.0 | 0.00 | 0.00 | 0.00 | 39 | 1016.4 |
| 20260503222000 | 23 | 196 | 0.0 | 3.2 | 0.00 | 0.00 | 0.00 | 43 | 1016.3 |
| 20260503221458 | 23 | 54 | 4.8 | 4.8 | 0.00 | 0.00 | 0.00 | 40 | 1016.5 |
| 20260503220955 | 23 | 288 | 6.4 | 8.0 | 0.00 | 0.00 | 0.00 | 42 | 1016.4 |
| 20260503220451 | 23 | 34 | 3.2 | 3.2 | 0.00 | 0.00 | 0.00 | 42 | 1016.5 |
| 20260503215948 | 23 | 224 | 4.8 | 8.0 | 0.00 | 0.00 | 0.00 | 40 | 1016.5 |
| 20260503215445 | 23 | 227 | 14.5 | 16.1 | 0.00 | 0.00 | 0.00 | 40 | 1016.6 |
| 20260503214943 | 23 | 173 | 11.3 | 14.5 | 0.00 | 0.00 | 0.00 | 39 | 1016.6 |
| 20260503214440 | 23 | 229 | 1.6 | 3.2 | 0.00 | 0.00 | 0.00 | 38 | 1016.7 |
| 20260503213937 | 24 | 210 | 9.7 | 11.3 | 0.00 | 0.00 | 0.00 | 40 | 1017.0 |
| 20260503213436 | 23 | 170 | 0.0 | 0.0 | 0.00 | 0.00 | 0.00 | 40 | 1016.9 |
| 20260503212932 | 23 | 199 | 1.6 | 3.2 | 0.00 | 0.00 | 0.00 | 38 | 1017.1 |
| 20260503212429 | 23 | 223 | 8.0 | 8.0 | 0.00 | 0.00 | 0.00 | 40 | 1016.9 |
| 20260503211927 | 23 | 215 | 6.4 | 8.0 | 0.00 | 0.00 | 0.00 | 42 | 1017.2 |
| 20260503211423 | 23 | 202 | 16.1 | 22.5 | 0.00 | 0.00 | 0.00 | 39 | 1017.1 |
| 20260503210919 | 23 | 174 | 6.4 | 8.0 | 0.00 | 0.00 | 0.00 | 41 | 1017.4 |
| 20260503210416 | 23 | 164 | 6.4 | 8.0 | 0.00 | 0.00 | 0.00 | 40 | 1017.5 |
| 20260503205910 | 23 | 116 | 3.2 | 3.2 | 0.00 | 0.00 | 0.00 | 38 | 1017.5 |
| 20260503205408 | 23 | 186 | 6.4 | 8.0 | 0.00 | 0.00 | 0.00 | 39 | 1017.6 |
| 20260503204904 | 23 | 205 | 8.0 | 8.0 | 0.00 | 0.00 | 0.00 | 41 | 1017.7 |
| 20260503204401 | 23 | 220 | 11.3 | 19.3 | 0.00 | 0.00 | 0.00 | 43 | 1017.8 |
| 20260503203858 | 23 | 98 | 3.2 | 3.2 | 0.00 | 0.00 | 0.00 | 44 | 1017.6 |
| 20260503203356 | 23 | 103 | 4.8 | 8.0 | 0.00 | 0.00 | 0.00 | 37 | 1017.5 |
| 20260503202852 | 23 | 214 | 8.0 | 11.3 | 0.00 | 0.00 | 0.00 | 38 | 1017.7 |
| 20260503202351 | 23 | 187 | 11.3 | 14.5 | 0.00 | 0.00 | 0.00 | 40 | 1017.8 |
| 20260503201849 | 23 | 203 | 3.2 | 4.8 | 0.00 | 0.00 | 0.00 | 40 | 1018.0 |
| 20260503201346 | 23 | 235 | 3.2 | 4.8 | 0.00 | 0.00 | 0.00 | 44 | 1018.2 |
| 20260503200843 | 23 | 201 | 6.4 | 8.0 | 0.00 | 0.00 | 0.00 | 39 | 1018.3 |
| 20260503200338 | 23 | 217 | 8.0 | 11.3 | 0.00 | 0.00 | 0.00 | 42 | 1018.3 |
| 20260503195836 | 23 | 97 | 3.2 | 3.2 | 0.00 | 0.00 | 0.00 | 39 | 1018.5 |
| 20260503195332 | 23 | 207 | 3.2 | 4.8 | 0.00 | 0.00 | 0.00 | 41 | 1018.8 |
| 20260503194830 | 23 | 125 | 4.8 | 4.8 | 0.00 | 0.00 | 0.00 | 46 | 1018.8 |
| 20260503194325 | 23 | 202 | 3.2 | 3.2 | 0.00 | 0.00 | 0.00 | 44 | 1018.9 |
| 20260503193823 | 23 | 186 | 6.4 | 8.0 | 0.00 | 0.00 | 0.00 | 44 | 1019.0 |
| 20260503193318 | 23 | 182 | 3.2 | 4.8 | 0.00 | 0.00 | 0.00 | 40 | 1019.2 |
| 20260503192815 | 23 | 20 | 8.0 | 11.3 | 0.00 | 0.00 | 0.00 | 40 | 1019.1 |
| 20260503192310 | 22 | 175 | 9.7 | 11.3 | 0.00 | 0.00 | 0.00 | 41 | 1019.2 |
| 20260503191806 | 23 | 229 | 8.0 | 8.0 | 0.00 | 0.00 | 0.00 | 41 | 1019.3 |
| 20260503191303 | 22 | 33 | 8.0 | 14.5 | 0.00 | 0.00 | 0.00 | 43 | 1019.5 |
| 20260503190800 | 22 | 338 | 6.4 | 8.0 | 0.00 | 0.00 | 0.00 | 43 | 1019.5 |
| 20260503190257 | 22 | 30 | 6.4 | 8.0 | 0.00 | 0.00 | 0.00 | 41 | 1019.7 |
| 20260503185754 | 23 | 149 | 3.2 | 4.8 | 0.00 | 0.00 | 0.00 | 45 | 1019.7 |
| 20260503185249 | 22 | 35 | 3.2 | 4.8 | 0.00 | 0.00 | 0.00 | 44 | 1019.6 |
| 20260503184745 | 23 | 79 | 6.4 | 11.3 | 0.00 | 0.00 | 0.00 | 43 | 1019.8 |
| 20260503184242 | 22 | 41 | 3.2 | 3.2 | 0.00 | 0.00 | 0.00 | 43 | 1019.7 |
| 20260503183737 | 22 | 50 | 3.2 | 3.2 | 0.00 | 0.00 | 0.00 | 41 | 1019.9 |
| 20260503183235 | 22 | 250 | 4.8 | 4.8 | 0.00 | 0.00 | 0.00 | 43 | 1020.1 |
| 20260503182733 | 22 | 248 | 9.7 | 11.3 | 0.00 | 0.00 | 0.00 | 40 | 1020.0 |
| 20260503182232 | 22 | 4 | 4.8 | 4.8 | 0.00 | 0.00 | 0.00 | 41 | 1020.1 |
| 20260503181728 | 22 | 226 | 6.4 | 11.3 | 0.00 | 0.00 | 0.00 | 46 | 1020.0 |
| 20260503181225 | 22 | 53 | 3.2 | 3.2 | 0.00 | 0.00 | 0.00 | 45 | 1020.1 |
| 20260503180721 | 22 | 37 | 0.0 | 3.2 | 0.00 | 0.00 | 0.00 | 46 | 1020.3 |
| 20260503180220 | 22 | 263 | 11.3 | 16.1 | 0.00 | 0.00 | 0.00 | 46 | 1020.3 |
| 20260503175716 | 23 | 179 | 4.8 | 4.8 | 0.00 | 0.00 | 0.00 | 42 | 1020.5 |
| 20260503175214 | 22 | 219 | 3.2 | 3.2 | 0.00 | 0.00 | 0.00 | 48 | 1020.4 |
| 20260503174710 | 21 | 203 | 4.8 | 4.8 | 0.00 | 0.00 | 0.00 | 49 | 1020.6 |
| 20260503174208 | 21 | 219 | 8.0 | 8.0 | 0.00 | 0.00 | 0.00 | 44 | 1020.6 |
| 20260503173708 | 21 | 246 | 6.4 | 8.0 | 0.00 | 0.00 | 0.00 | 41 | 1020.7 |
| 20260503173204 | 21 | 278 | 4.8 | 4.8 | 0.00 | 0.00 | 0.00 | 48 | 1020.8 |
| 20260503172701 | 21 | 182 | 3.2 | 4.8 | 0.00 | 0.00 | 0.00 | 47 | 1020.9 |
| 20260503172158 | 21 | 169 | 4.8 | 4.8 | 0.00 | 0.00 | 0.00 | 47 | 1021.0 |
| 20260503171654 | 21 | 190 | 8.0 | 11.3 | 0.00 | 0.00 | 0.00 | 46 | 1021.3 |
| 20260503171152 | 21 | 208 | 8.0 | 8.0 | 0.00 | 0.00 | 0.00 | 46 | 1021.1 |
| 20260503170649 | 21 | 231 | 4.8 | 4.8 | 0.00 | 0.00 | 0.00 | 46 | 1021.0 |
| 20260503170145 | 20 | 190 | 1.6 | 3.2 | 0.00 | 0.00 | 0.00 | 48 | 1021.1 |
| 20260503160107 | 19 | 199 | 8.0 | 8.0 | 0.00 | 0.00 | 0.00 | 47 | 1021.9 |